Orbital Elements at Epoch 2459200.5 (2020-Dec-17.0) TDB
Reference: JPL 27 (heliocentric ecliptic J2000)
Element | Value | Uncertainty (1-sigma) | Units |
e | .1211818799775487 | 3.1943e-08 | |
a | 2.393622903099032 | 8.0798e-09 | au |
q | 2.103559179744174 | 7.6892e-08 | au |
i | .5150551018437788 | 3.2965e-06 | deg |
node | 262.5270288717926 | 0.00049419 | deg |
peri | 222.9517649721077 | 0.00049458 | deg |
M | 247.4831106207592 | 2.1147e-05 | deg |
tp | 2459623.263262654594 (2022-Feb-12.76326265) | 8.0697e-05 | TDB |
period | 1352.639371700702 3.70 | 6.8489e-06 1.875e-08 | d yr |
n | .2661463266054161 | 1.3476e-09 | deg/d |
Q | 2.68368662645389 | 9.0589e-09 | au |
|
| | Orbit Determination Parameters
Additional Information
|